Showing default

STEP 2, 23105

Orbit data source: Space-Track

STEP 2, 23105 is a payload satellite owned by USAF STP (US) in LEO that was launched on Thu, 19 May 1994 UTC via a PEGASUS/HAPS launch vehicle from the Air Force Western Test Range (AFWTR). Payload-class satellites include a variety of spacecraft equipped with specific instruments for various scientific and technological missions. These include communications satellites like Starlink; space stations such as the ISS; scientific satellites like the Hubble; Earth observation satellites from companies like Planet Labs, Umbra, and HawkEye 360; GPS; miniature CubeSats for education and research; and military/defense satellites.

Loading next visibility...
Identifier
23105, 1994-029A
Orbit
LEO
Country
Flag of USUS
Related business
Manufacturer
TRWC/CTA
Mission
Defense Technology
Bus & Motor
LEOSTAR T-200, Unknown motor
Mass
180 kg wet, 180 kg dry
Launch date (UTC)
1994-05-19 (32 years ago)
Launch vehicle
PEGASUS/HAPS
Launch site
Air Force Western Test Range (AFWTR)
Object type
Payload
Rocket body
Debris
Shape & HBR
Cyl + 4 Pan, 1.5 m
Radar Cross Section
3.076 m², Large (>1 m²)

Expand to show TLE details & history
Last TLE update: 16 hours ago

TLE from 16 hours ago
0 STEP 2
1 23105U 94029A   26235.62856286  .00002451  00000-0  22981-3 0  9993
2 23105  81.9366 105.0066 0082852  38.2548 322.4507 14.91007771729939
Epoch: 2026-08-23T15:05Z
TLE epoch observation values (Epoch: 2026-08-23T15:05:07.831Z)
Latitude
Longitude
-93.19791°
Altitude
552.19 km
Speed
7.61 km/s
True Right ascension
07h 00m 01s
True Declination
0° 00' 00"
Sunlit
Object was in daylight at epoch
Visualization orbit readout
Latitude
Unknown
Longitude
Unknown
Altitude
Unknown
Speed
Unknown
Apparent Right ascension
Unknown
Apparent Declination
Unknown
Sunlit
N/A
Visualization observer readout
Local Sidereal Time
21:45:12
Azimuth
Unknown
Elevation
Unknown
Doppler factor
Unknown
Orbital elements
Apogee altitude
649.573 km
Perigee altitude
534.078 km
Semi-major axis
6,969.962 km
Eccentricity
0.00829
Inclination
81.9366°
RAAN
105.0066°
Arg. of periapsis
38.2548°
True anomaly
321.86731°
Mean anomaly
322.4507°
Eccentric anomaly
322.15948°
Mean motion
3.7299 °/min
Orbital period
96.52 mins
BSTAR
0.00022981
Loading maneuver chart data...
Computing Atmospheric mass density...

Documentation

Showing up to 5 results
|